Tracking 21094 objects as of 12-Aug-2020
HD Live streaming from Space Station
objects crossing your sky now
Track the most recent launched group of Starlink satellites

TES

Track TES now!
10-day predictions
TES is classified as:


NORAD ID: 26957
Int'l Code: 2001-049A
Perigee: 511.5 km
Apogee: 565.9 km
Inclination: 97.7 °
Period: 95.3 minutes
Semi major axis: 6909 km
RCS: 3.0893 m2 (large)
Launch date: October 22, 2001
Source: India (IND)
Launch site: SRIHARIKOTA (SRI)

Takes high resolution photos of anything over 3 feet; called prototype for India's "spy satellite."
aabbcc
Your satellite tracking list
Your tracking list is empty




NASA's NSSDC Master Catalog

Two Line Element Set (TLE):
1 26957U 01049A   20224.93669552 +.00000519 +00000-0 +34174-4 0  9996
2 26957 097.7358 346.2275 0039362 041.8428 318.5792 15.11534536032339
Source of the keplerian elements: AFSPC